Stations météo

réclame
Mon MeteoGroup
Edinburgh/Gogarbank, Grande-Bretagne (3166): Température de l'air & dewpoint: 17.04.2018 02:00:00 - 23.04.2018 02:00:00 (BST)Edinburgh/Gogarbank, Grande-Bretagne (3166): Température de l'air -20cm & Température de l'air -100cm: 17.04.2018 02:00:00 - 23.04.2018 02:00:00 (BST)Edinburgh/Gogarbank, Grande-Bretagne (3166): Vitesse du vent & gusts: 17.04.2018 02:00:00 - 23.04.2018 02:00:00 (BST)Edinburgh/Gogarbank, Grande-Bretagne (3166): Direction du vent: 17.04.2018 02:00:00 - 23.04.2018 02:00:00 (BST)Edinburgh/Gogarbank, Grande-Bretagne (3166): reduced air pressure: 17.04.2018 02:00:00 - 23.04.2018 02:00:00 (BST)Edinburgh/Gogarbank, Grande-Bretagne (3166): visibility: 17.04.2018 02:00:00 - 23.04.2018 02:00:00 (BST)Edinburgh/Gogarbank, Grande-Bretagne (3166): Ensoleillement: 17.04.2018 02:00:00 - 23.04.2018 02:00:00 (BST)Edinburgh/Gogarbank, Grande-Bretagne (3166): Quantités de précipitations: 17.04.2018 02:00:00 - 23.04.2018 02:00:00 (BST)
Date & Time tt [°C] td [°C] tt -20cm [°C] tt -100cm [°C] ff [km/h] ff [knt] fx [km/h] fx [knt] dd ppp [hPa] vv [km] sd [min] rr [mm]
23.04.2018 02:00:00 8,8 6,7 - - 29 16 46 25 WSW 1003,2 30 0 0,0
23.04.2018 01:00:00 8,6 6,4 - - 22 12 - - WSW 1003,3 30 - 0,0
23.04.2018 00:00:00 8,8 6,9 - - 21 11 - - WSW 1003,4 35 0 0,0
22.04.2018 23:00:00 9,1 7,1 - - 21 11 - - WSW 1003,2 20 0 0,0
22.04.2018 22:00:00 9,6 6,8 - - 24 13 - - SW 1002,8 35 0 0,2
22.04.2018 21:00:00 9,8 6,5 - - 21 11 - - SW 1002,7 40 6 0,0
22.04.2018 20:00:00 9,9 6,9 - - 15 8 - - SW 1003,0 40 0 0,0
22.04.2018 19:00:00 11,6 5,5 - - 16 9 - - SW 1002,6 50 12 0,0
22.04.2018 18:00:00 12,3 4,9 - - 22 12 - - WSW 1002,6 50 12 0,0
22.04.2018 17:00:00 11,5 5,9 - - 21 11 - - WSW 1002,9 50 6 0,0
22.04.2018 16:00:00 11,4 7,2 - - 21 11 46 25 WSW 1002,9 40 0 0,0
22.04.2018 15:00:00 12,1 7,4 - - 26 14 - - WSW 1002,7 45 24 0,0
22.04.2018 14:00:00 10,3 7,8 - - 22 12 - - SW 1002,8 10 12 0,0
22.04.2018 13:00:00 12,3 5,7 - - 29 16 48 26 SW 1002,4 40 18 0,0
22.04.2018 12:00:00 12,0 4,3 - - 24 13 - - SW 1002,7 35 0 0,0
22.04.2018 11:00:00 13,7 3,3 - - 26 14 - - SSW 1002,8 40 0 0,0
22.04.2018 10:00:00 13,2 4,1 9,4 7,4 16 9 - - SW 1003,1 30 6 0,0
22.04.2018 09:00:00 13,1 2,3 - - 16 9 - - SW 1003,2 40 6 0,0
22.04.2018 08:00:00 12,9 3,1 - - 16 9 - - SSW 1003,2 35 0 0,0
22.04.2018 07:00:00 13,2 5,3 - - 15 8 - - SW 1003,2 29 0 0,0
22.04.2018 06:00:00 13,2 8,7 - - 16 9 - - SSW 1003,5 16 0 0,0
22.04.2018 05:00:00 9,7 8,3 - - 5 3 - - W 1004,5 10 0 0,0
22.04.2018 04:00:00 9,4 7,9 - - 2 1 - - E 1005,7 10 0 0,0
22.04.2018 03:00:00 9,0 7,9 - - 2 1 - - W 1006,6 10 0 0,0
22.04.2018 02:00:00 7,7 6,5 - - 2 1 - - W 1007,4 7 0 0,0
22.04.2018 01:00:00 8,9 7,3 - - 8 4 - - WNW 1007,8 10 - 0,0
22.04.2018 00:00:00 8,9 7,2 - - 4 2 - - WNW 1008,8 13 0 0,0
21.04.2018 23:00:00 8,9 6,9 - - 4 2 - - W 1009,6 13 0 0,0
21.04.2018 22:00:00 8,9 6,1 - - 4 2 - - W 1010,6 13 0 0,0
21.04.2018 21:00:00 11,7 6,2 - - 5 3 - - E 1011,4 22 12 0,0
21.04.2018 20:00:00 15,4 5,5 - - 11 6 - - E 1012,0 35 60 0,0
21.04.2018 19:00:00 16,2 5,6 - - 13 7 - - ENE 1012,9 40 60 0,0
21.04.2018 18:00:00 16,6 5,8 - - 11 6 - - E 1013,7 45 60 0,0
21.04.2018 17:00:00 17,4 5,3 - - 15 8 - - ENE 1014,6 40 60 0,0
21.04.2018 16:00:00 16,9 6,3 - - 18 10 - - N 1015,5 35 60 0,0
21.04.2018 15:00:00 18,3 3,9 - - 9 5 - - S 1016,7 45 60 0,0
21.04.2018 14:00:00 17,4 4,7 - - 13 7 - - SW 1017,8 40 42 0,0
21.04.2018 13:00:00 15,3 4,8 - - 16 9 - - SW 1018,8 45 30 0,0
21.04.2018 12:00:00 15,4 4,6 - - 18 10 - - SW 1019,5 40 48 0,0
21.04.2018 11:00:00 14,2 6,0 - - 13 7 - - WSW 1020,4 40 54 0,0
21.04.2018 10:00:00 12,8 6,2 9,0 7,2 5 3 - - NE 1020,8 30 60 0,0
21.04.2018 09:00:00 11,1 6,2 - - 4 2 - - NNE 1021,5 30 60 0,0
21.04.2018 08:00:00 7,7 6,2 - - 2 1 - - WNW 1021,9 28 60 0,0
21.04.2018 07:00:00 5,0 4,7 - - 2 1 - - SSW 1022,0 22 24 0,0
21.04.2018 06:00:00 4,3 3,8 - - 2 1 - - S 1022,1 22 0 0,0
21.04.2018 05:00:00 4,9 4,0 - - 4 2 - - ESE 1022,3 22 0 0,0
21.04.2018 04:00:00 5,5 4,2 - - 0 0 - - N 1022,7 24 0 0,0
21.04.2018 03:00:00 6,6 5,2 - - 4 2 - - NNE 1023,0 26 0 0,0
21.04.2018 02:00:00 7,4 5,0 - - 9 5 - - SSW 1023,4 29 0 0,0
21.04.2018 01:00:00 8,0 5,2 - - 11 6 - - SW 1023,6 28 - 0,0
21.04.2018 00:00:00 8,2 5,1 - - 9 5 - - SW 1023,7 29 0 0,0
20.04.2018 23:00:00 8,5 5,0 - - 11 6 - - SSW 1023,6 30 0 0,0
20.04.2018 22:00:00 9,2 5,2 - - 11 6 - - SSW 1023,5 30 0 0,0
20.04.2018 21:00:00 10,6 5,9 - - 11 6 - - SW 1023,2 29 0 0,0
20.04.2018 20:00:00 12,6 5,8 - - 22 12 - - WSW 1022,7 30 42 0,0
20.04.2018 19:00:00 13,6 5,2 - - 22 12 - - WSW 1022,4 35 24 0,0
20.04.2018 18:00:00 13,9 4,2 - - 28 15 - - WSW 1022,4 40 42 0,0
20.04.2018 17:00:00 15,0 4,6 - - 29 16 - - W 1022,5 35 54 0,0
20.04.2018 16:00:00 15,3 4,7 - - 26 14 - - W 1022,3 35 54 0,0
20.04.2018 15:00:00 14,8 5,2 - - 31 17 46 25 WSW 1022,2 35 54 0,0
20.04.2018 14:00:00 15,9 5,9 - - 28 15 - - W 1022,1 30 54 0,0
20.04.2018 13:00:00 15,7 5,0 - - 24 13 - - WSW 1022,0 35 60 0,0
20.04.2018 12:00:00 15,2 6,3 - - 22 12 - - W 1022,0 30 54 0,0
20.04.2018 11:00:00 14,3 8,0 - - 18 10 - - W 1022,2 28 60 0,0
20.04.2018 10:00:00 13,1 7,6 8,9 7,0 21 11 - - W 1022,2 30 54 0,0
20.04.2018 09:00:00 12,1 9,1 - - 18 10 - - WSW 1022,1 25 54 0,0
20.04.2018 08:00:00 10,8 8,9 - - 13 7 - - WSW 1022,1 24 54 0,0
20.04.2018 07:00:00 8,0 7,4 - - 9 5 - - WNW 1022,1 18 0 0,0
20.04.2018 06:00:00 7,9 7,5 - - 11 6 - - W 1021,8 21 0 0,0
20.04.2018 05:00:00 6,5 6,1 - - 4 2 - - SW 1022,0 21 0 0,0
20.04.2018 04:00:00 6,6 5,8 - - 5 3 - - W 1022,1 21 0 0,0
20.04.2018 03:00:00 7,0 6,3 - - 5 3 - - W 1022,2 24 0 0,0
20.04.2018 02:00:00 7,2 6,2 - - 2 1 - - NW 1022,5 26 0 0,0
20.04.2018 01:00:00 8,1 7,0 - - 5 3 - - WSW 1023,0 30 - 0,0
20.04.2018 00:00:00 9,0 7,3 - - 5 3 - - WSW 1023,0 30 0 0,0
19.04.2018 23:00:00 10,6 7,6 - - 8 4 - - SW 1023,1 30 0 0,0
19.04.2018 22:00:00 12,0 8,2 - - 16 9 - - SW 1023,1 40 0 0,0
19.04.2018 21:00:00 12,8 8,8 - - 11 6 - - SSW 1022,9 40 6 0,0
19.04.2018 20:00:00 14,8 9,1 - - 18 10 - - SSW 1022,2 45 60 0,0
19.04.2018 19:00:00 16,3 9,6 - - 15 8 - - SW 1022,3 45 60 0,0
19.04.2018 18:00:00 16,8 9,3 - - 18 10 - - SSW 1022,3 50 60 0,0
19.04.2018 17:00:00 17,9 10,3 - - 21 11 - - SW 1022,2 45 54 0,0
19.04.2018 16:00:00 17,9 10,4 - - 22 12 - - SW 1022,0 40 36 0,0
19.04.2018 15:00:00 16,8 10,8 - - 24 13 - - SW 1022,0 35 6 0,0
19.04.2018 14:00:00 17,8 10,5 - - 26 14 - - SW 1021,6 35 18 0,0
19.04.2018 13:00:00 17,7 10,4 - - 28 15 - - SW 1021,4 35 0 0,0
19.04.2018 12:00:00 17,8 10,3 - - 18 10 - - SW 1021,3 30 42 0,0
19.04.2018 11:00:00 18,3 10,3 - - 21 11 - - SW 1021,0 30 60 0,0
19.04.2018 10:00:00 16,8 9,8 8,7 6,9 22 12 - - SSW 1020,5 30 60 0,0
19.04.2018 09:00:00 15,7 9,2 - - 24 13 - - SW 1020,4 26 60 -
19.04.2018 08:00:00 14,1 9,7 - - 8 4 - - SW 1020,1 23 48 -
19.04.2018 07:00:00 11,5 8,4 - - 9 5 - - WSW 1019,6 22 0 -
19.04.2018 06:00:00 10,8 7,2 - - 8 4 - - SW 1019,5 23 0 -
19.04.2018 05:00:00 10,5 7,0 - - 8 4 - - S 1019,5 29 0 -
19.04.2018 04:00:00 10,8 8,0 - - 8 4 - - SW 1019,8 30 0 -
19.04.2018 03:00:00 13,3 8,0 - - 5 3 - - SW 1019,8 30 0 -
19.04.2018 02:00:00 13,3 8,2 - - 8 4 - - W 1019,8 35 0 0,0
19.04.2018 01:00:00 15,5 9,9 - - 9 5 - - S 1019,8 35 - 0,0
19.04.2018 00:00:00 16,2 10,7 - - 13 7 - - S 1019,8 35 0 0,0
18.04.2018 23:00:00 14,4 10,9 - - 13 7 - - ESE 1019,8 30 0 0,0
18.04.2018 22:00:00 14,7 10,7 - - 15 8 - - ESE 1020,4 30 0 0,0
18.04.2018 21:00:00 15,1 10,5 - - 15 8 - - ESE 1020,5 35 0 0,0
18.04.2018 20:00:00 15,4 9,9 - - 16 9 - - SE 1020,6 35 0 0,0
18.04.2018 19:00:00 16,0 9,5 - - 8 4 - - SSE 1020,9 35 0 0,0
18.04.2018 18:00:00 16,4 10,2 - - 13 7 - - S 1021,0 30 6 0,0
18.04.2018 17:00:00 16,1 10,0 - - 28 15 54 29 SSW 1021,2 30 6 0,0
18.04.2018 16:00:00 15,8 10,7 - - 18 10 46 25 SSW 1021,4 30 0 0,0
18.04.2018 15:00:00 14,9 10,5 - - 18 10 - - SSW 1021,9 30 0 0,0
18.04.2018 14:00:00 14,4 10,2 - - 16 9 - - SSW 1022,1 35 0 0,0
18.04.2018 13:00:00 14,4 10,4 - - 18 10 - - SW 1021,2 35 0 0,0
18.04.2018 12:00:00 14,5 10,0 - - 24 13 - - SSW 1020,5 50 0 0,0
18.04.2018 11:00:00 14,8 10,5 - - 22 12 - - SSW 1020,1 50 12 0,0
18.04.2018 10:00:00 13,6 10,5 8,2 6,7 13 7 - - S 1019,1 60 0 0,0
18.04.2018 09:00:00 12,5 9,9 - - 8 4 - - SSW 1018,9 45 0 0,0
18.04.2018 08:00:00 11,9 9,6 - - 8 4 - - SW 1018,7 20 0 0,0
18.04.2018 07:00:00 11,6 9,2 - - 13 7 - - SSW 1018,2 23 0 0,0
18.04.2018 06:00:00 11,7 8,6 - - 18 10 - - SSW 1017,5 35 0 0,0
18.04.2018 05:00:00 11,2 8,2 - - 21 11 - - SSW 1017,1 28 0 0,0
18.04.2018 04:00:00 11,3 7,8 - - 24 13 46 25 SSW 1016,4 23 0 0,0
18.04.2018 03:00:00 11,0 7,9 - - 16 9 - - SW 1016,3 23 0 0,0
18.04.2018 02:00:00 10,8 7,6 - - 15 8 - - SSW 1016,1 19 0 0,0
18.04.2018 01:00:00 10,7 7,2 - - 18 10 - - S 1014,9 19 - 0,0
18.04.2018 00:00:00 11,1 7,4 - - 21 11 46 25 S 1014,5 19 0 0,0
17.04.2018 23:00:00 11,0 7,3 - - 18 10 46 25 S 1013,3 19 0 0,0
17.04.2018 22:00:00 11,4 7,5 - - 26 14 55 30 SSW 1012,1 19 0 0,0
17.04.2018 21:00:00 11,5 7,6 - - 28 15 48 26 SSW 1011,8 19 0 0,0
17.04.2018 20:00:00 12,1 7,5 - - 21 11 61 33 SSW 1010,8 22 48 0,0
17.04.2018 19:00:00 13,2 7,9 - - 28 15 67 36 SSW 1009,1 22 60 0,0
17.04.2018 18:00:00 13,9 7,9 - - 39 21 70 38 SSW 1008,3 23 60 0,0
17.04.2018 17:00:00 13,9 7,9 - - 37 20 70 38 SSW 1007,4 22 60 0,0
17.04.2018 16:00:00 14,1 8,1 - - 39 21 68 37 SSW 1007,2 25 60 0,0
17.04.2018 15:00:00 14,0 8,0 - - 44 24 72 39 SSW 1007,0 28 60 0,0
17.04.2018 14:00:00 14,2 7,7 - - 41 22 72 39 SSW 1006,5 40 60 0,0
17.04.2018 13:00:00 13,3 8,9 - - 37 20 63 34 SSW 1005,8 35 12 0,0
17.04.2018 12:00:00 13,6 8,5 - - 34 18 70 38 SSW 1005,5 30 24 0,0
17.04.2018 11:00:00 13,1 8,3 - - 28 15 59 32 SSW 1005,4 50 18 0,0
17.04.2018 10:00:00 12,6 8,3 7,9 6,5 28 15 63 34 SSW 1004,9 40 6 0,0
17.04.2018 09:00:00 12,4 8,6 - - 24 13 50 27 S 1004,3 30 6 0,0
17.04.2018 08:00:00 12,3 7,9 - - 21 11 52 28 S 1003,7 45 0 0,0
17.04.2018 07:00:00 11,9 7,5 - - 13 7 - - SSE 1003,6 35 0 0,0
17.04.2018 06:00:00 10,8 6,3 - - 9 5 - - SE 1003,7 30 0 0,0
17.04.2018 05:00:00 10,8 5,3 - - 16 9 - - SSE 1004,8 30 0 0,0
17.04.2018 04:00:00 10,8 4,7 - - 13 7 - - SSE 1005,3 30 0 0,0
17.04.2018 03:00:00 10,8 5,0 - - 16 9 - - S 1006,3 30 0 0,0
17.04.2018 02:00:00 10,2 4,9 - - 5 3 - - SSE 1007,1 30 0 0,0

tt = Température de l'air
td = dewpoint
tt -20cm = Température de l'air -20cm
tt -100cm = Température de l'air -100cm
ff = Vitesse du vent
fx = gusts
dd = Direction du vent
ppp = reduced air pressure
vv = visibility
sd = Ensoleillement
rr = Quantités de précipitations

stations d'obs. à proximité